Flag for Greece Weather past 2 weeks in Athens, Greece

Now
86 °F

Sunny.


Feels Like: 87 °F
Forecast: 70 / 89 °F
Wind: 6 mph from West

Location: Elefsis Airport

Current Time: Jul 23, 2014 at 12:42:05 AM

Latest Report: Jul 22, 2014 at 7:50 PM


Visibility: 10 mi

Pressure: 29.68 "Hg

Humidity: 46%

Dew point: 63 °F

Location of AthensLocation

Historic Weather in Athens — Graph

°F

Athens temperature yesterday

Maximum temperature yesterday: 93 °F (at 1:50 PM)
Minimum temperature yesterday: 72 °F (at 4:50 AM)
Average temperature yesterday: 82 °F

Past Weeks' High & Low Weather Summary

 TemperatureHumidityPressure
High100 °F (Jul 9, 3:50 PM)88% (Jul 19, 11:20 PM)29.95 "Hg (Jul 19, 11:20 PM)
Low68 °F (Jul 17, 3:50 AM)12% (Jul 9, 3:50 PM)29.59 "Hg (Jul 11, 5:50 PM)
Average82 °F43%29.81 "Hg
* Reported Jul 7 7:20 PM — Jul 22 7:50 PM, Athens, Weather by CustomWeather, © 2014

Note: Actual official high and low records may vary slightly from our data, if they occured in-between our weather recording intervals... More about our weather records

Advertising

Athens weather history for previous 24 hours

 ConditionsComfort  
Time TempWeatherWind HumidityBarometerVisibility
7:50 PM
Jul 22
86 °FSunny.6 mph46%29.68 "Hg10 mi
7:20 PM86 °FSunny.9 mph43%29.68 "Hg10 mi
6:50 PM88 °FSunny.14 mph40%29.68 "Hg10 mi
6:20 PM88 °FSunny.13 mph40%29.68 "Hg10 mi
5:50 PM88 °FSunny.15 mph38%29.68 "Hg10 mi
5:20 PM90 °FSunny.16 mph31%29.71 "Hg10 mi
4:50 PM90 °FSunny.17 mph31%29.71 "Hg10 mi
4:20 PM90 °FSunny.17 mph31%29.71 "Hg10 mi
3:50 PM90 °FSunny.18 mph33%29.71 "Hg10 mi
3:20 PM91 °FSunny.18 mph34%29.71 "Hg10 mi
2:50 PM91 °FSunny.15 mph36%29.71 "Hg10 mi
2:20 PM93 °FSunny.10 mph30%29.71 "Hg10 mi
1:50 PM93 °FSunny.7 mph32%29.74 "Hg10 mi
1:20 PM91 °FSunny.7 mph34%29.74 "Hg10 mi
12:50 PM91 °FSunny.8 mph36%29.74 "Hg10 mi
12:20 PM90 °FSunny.7 mph38%29.74 "Hg10 mi
11:50 AM90 °FSunny.7 mph41%29.74 "Hg10 mi
11:20 AM88 °FSunny.No wind40%29.77 "Hg10 mi
10:50 AM88 °FSunny.No wind35%29.77 "Hg10 mi
10:20 AM86 °FSunny.No wind40%29.77 "Hg10 mi
9:50 AM84 °FSunny.No wind45%29.77 "Hg10 mi
9:20 AM82 °FSunny.No wind48%29.77 "Hg10 mi
8:50 AM81 °FSunny.No wind51%29.77 "Hg10 mi
8:20 AM79 °FSunny.No wind51%29.77 "Hg10 mi
7:50 AM77 °FSunny.No wind54%29.77 "Hg10 mi
7:20 AM75 °FSunny.No wind57%29.77 "Hg10 mi
6:50 AM72 °FClear.No wind65%29.77 "Hg10 mi
6:20 AM72 °FClear.No wind65%29.77 "Hg10 mi
5:50 AM73 °FClear.No wind61%29.77 "Hg10 mi
5:20 AM72 °FClear.No wind65%29.77 "Hg10 mi
4:50 AM72 °FClear.No wind65%29.77 "Hg10 mi
4:20 AM73 °FClear.No wind61%29.77 "Hg10 mi
3:50 AM73 °FClear.No wind61%29.77 "Hg10 mi
3:20 AM73 °FClear.No wind65%29.80 "Hg10 mi
2:50 AM73 °FClear.No wind65%29.80 "Hg10 mi
2:20 AM75 °FClear.No wind61%29.80 "Hg10 mi
1:50 AM75 °FClear.No wind61%29.80 "Hg10 mi
1:20 AM75 °FClear.No wind61%29.83 "Hg10 mi
12:50 AM77 °FClear.No wind57%29.83 "Hg10 mi
12:20 AM79 °FClear.No wind54%29.83 "Hg10 mi
Weather by CustomWeather, © 2014

See weather overviewHow to use our weather pages